Location: Ergnies
(50.0854°N, 2.0375°E)
Time: 14:41:04
(UTC+00:00)

IRS-1D - Visible Passes

Search period start: 19 April 2026 00:00
Search period end: 29 April 2026 00:00
Orbit: 736 x 811 km, 98.8° (Epoch: 19 April)

Date Brightness Start Highest point End Pass type
(mag) Time Alt. Az. Time Alt. Az. Time Alt. Az.
20 Apr 6.4 03:53:16 10° NE 03:56:11 15° E 03:59:05 10° ESE visible
23 Apr 6.5 03:49:30 10° ENE 03:52:08 14° E 03:54:46 10° ESE visible
26 Apr 6.6 03:45:48 10° ENE 03:48:05 13° E 03:50:23 10° ESE visible
